Location: Dürabuch
(48.2640°N, 11.2185°E)
Time: 22:07:28
(UTC+00:00)

Cosmos 1908 Rocket - Pass Details

Date: 23 May 2024
Orbit: 602 x 628 km, 82.5° (Epoch: 14 June)

Event Time Altitude Azimuth Distance (km) Brightness Sun altitude
Rises 00:13:36 0° 354° (N) 2,922 8.3 -19.7°
Reaches altitude 10° 00:15:54 10° 359° (N) 2,007 7.3 -19.6°
Maximum altitude 00:20:15 53° 77° (ENE) 768 4.1 -19.4°
Enters shadow 00:22:24 27° 142° (SE) 1,192 4.7 -19.3°
